This is the latest recevied weather packets stored in our database for station/object KE8URB. If no packets are shown the sender has not sent any weather packets the latest 10 day(s).
| Time | Temp. | Humidity | Pressure | Rain* | Wind** | Luminosity | Snow |
|---|---|---|---|---|---|---|---|
| 1788048174 | 22.22° C | 74% | 1021.6 hPa | 0 mm | - | 0 W/m² | - |
| 1788047871 | 22.78° C | 73% | 1021.5 hPa | 0 mm | - | 2 W/m² | - |
| 1788047566 | 22.78° C | 74% | 1021.6 hPa | 0 mm | - | 4 W/m² | - |
| 1788047266 | 22.78° C | 75% | 1021.6 hPa | 0 mm | - | 6 W/m² | - |
| 1788046961 | 22.78° C | 77% | 1021.4 hPa | 0 mm | - | 6 W/m² | - |
| 1788046660 | 23.33° C | 77% | 1021.7 hPa | 0 mm | - | 6 W/m² | - |
| 1788046355 | 23.89° C | 76% | 1021.6 hPa | 0 mm | - | 11 W/m² | - |
| 1788046052 | 23.89° C | 74% | 1021.4 hPa | 0 mm | - | 14 W/m² | - |
| 1788045748 | 24.44° C | 73% | 1021.4 hPa | 0 mm | - | 19 W/m² | - |
| 1788045444 | 24.44° C | 71% | 1021.6 hPa | 0 mm | - | 19 W/m² | - |
| 1788045139 | 25° C | 70% | 1021.7 hPa | 0 mm | - | 25 W/m² | - |
| 1788044838 | 25.56° C | 69% | 1021.6 hPa | 0 mm | - | 36 W/m² | - |
| 1788044533 | 25.56° C | 67% | 1021.6 hPa | 0 mm | - | 27 W/m² | - |
| 1788044232 | 25.56° C | 63% | 1021.7 hPa | 0 mm | - | 32 W/m² | - |
| 1788043928 | 26.11° C | 63% | 1021.8 hPa | 0 mm | - | 37 W/m² | - |
| 1788043623 | 27.22° C | 59% | 1021.7 hPa | 0 mm | - | 51 W/m² | - |
| 1788043318 | 27.22° C | 60% | 1021.7 hPa | 0 mm | - | 94 W/m² | - |
| 1788043013 | 27.22° C | 54% | 1021.7 hPa | 0 mm | - | 66 W/m² | - |
| 1788042709 | 27.22° C | 55% | 1021.9 hPa | 0 mm | - | 60 W/m² | - |
| 1788042407 | 26.67° C | 58% | 1021.8 hPa | 0 mm | - | 59 W/m² | - |
| 1788042102 | 27.22° C | 56% | 1021.7 hPa | 0 mm | - | 53 W/m² | - |
| 1788041798 | 27.22° C | 55% | 1021.8 hPa | 0 mm | - | 149 W/m² | - |
| 1788041493 | 27.22° C | 53% | 1021.6 hPa | 0 mm | - | 196 W/m² | - |
| 1788041188 | 27.22° C | 56% | 1021.9 hPa | 0 mm | - | 178 W/m² | - |
| 1788040887 | 26.67° C | 56% | 1021.8 hPa | 0 mm | - | 184 W/m² | - |
* Rain latest hour (hover to see other rain measurements)
** Current wind speed in m/s (hover to see current wind gust speed)